sat.trackr.live / text

‹ back to catalog

STARLINK-5910

NORAD 56000 · 2023-042Q

PAYLOAD ACTIVE UNKNOWN

§ Identity

Operator
Country
US
Launch date
2023-03-24
Launch site
AFETR
Launch vehicle
Mass (kg)
RCS (m²)

Purposes: comms

External: N2YO · Heavens-Above · Gunter

§ Orbital elements

Epoch: 2026-09-20T19:48:42.493248Z

Period
94.27 min
Inclination
43.0049°
Eccentricity
0.0001514
Mean motion
15.27572558 rev/d
Perigee alt
482.0 km
Apogee alt
484.1 km
Semi-major
6,861.2 km
B*
1.2861e-8
RAAN
37.5152°
Arg perigee
276.7819°
Mean anomaly
83.2860°
Rev number
19,271

§ Raw data

STARLINK-59101 56000U 23042Q   26263.82549182 -.00000262  00000+0  12861-7 0  99952 56000  43.0049  37.5152 0001514 276.7819  83.2860 15.27572558192711

JSON: /api/v1/satellites/56000 · /tle

For live sub-satellite position, see the globe view (requires WebGL).

§ Visibility from observer

Set your observer location to see the next 7 days of passes ≥ 10°. The values pass through the URL so the page stays shareable.

No JS? Fill the form by hand. The geolocation button needs JavaScript.